Weather History for KAUN - November, 2010

Change the Weather History Date:

Thursday, November 4, 2010

  Actual Average Record
Temperature  
Mean Temperature 70 °F -  
Max Temperature 80 °F 70 °F 111 °F (2011)
Min Temperature 60 °F 47 °F 34 °F (1973)
Cooling Degree Days 5    
Growing Degree Days 20 (Base 50)    
Moisture  
Dew Point 48 °F    
Average Humidity 47    
Maximum Humidity 64    
Minimum Humidity 30    
Precipitation  
Precipitation 0.00 in - - ()
Sea Level Pressure  
Sea Level Pressure 30.08 in    
Wind  
Wind Speed 6 mph (East)    
Max Wind Speed 10 mph    
Max Gust Speed -    
Visibility 10 miles    
Events      
Averages and records for this station are not official NWS values.
T = Trace of Precipitation, MM = Missing Value Source: NWS Daily Summary

Daily Weather History Graph

Daily Weather History Graph

Search for Another Location

Airport or City:

Trip Planner

Search our weather history database for the weather conditions in past years. The results will help you decide how hot, cold, wet, or windy it might be!

Date:

Astronomy

Nov. 04, 2010 Rise Set
Actual Time 7:34 AM PDT 6:00 PM PDT
Civil Twilight 7:07 AM PDT 6:28 PM PDT
Nautical Twilight 6:35 AM PDT 6:59 PM PDT
Astronomical Twilight 6:04 AM PDT 7:30 PM PDT
Moon 5:53 AM PDT (11/4) 4:47 PM PDT (11/4)
Length of Visible Light 11h 20m
Length of Day
10h 25m
Waning Crescent, 3% of the Moon is Illuminated
Nov 4
Waning Crescent
Nov 5
New
Nov 13
First Quarter
Nov 21
Full
Nov 28
Last Quarter

Hourly Weather History & Observations

Time (PDT) Temp. Heat Index Dew Point Humidity Pressure Visibility Wind Dir Wind Speed Gust Speed Precip Events Conditions
12:10 AM 64.4 °F - 51.8 °F 64% 30.13 in 10.0 mi East 6.9 mph - N/A   Clear
12:30 AM 64.4 °F - 50.0 °F 59% 30.13 in 10.0 mi East 6.9 mph - N/A   Clear
12:50 AM 64.4 °F - 48.2 °F 56% 30.13 in 10.0 mi East 6.9 mph - N/A   Clear
1:10 AM 62.6 °F - 48.2 °F 59% 30.13 in 10.0 mi East 6.9 mph - N/A   Clear
1:30 AM 62.6 °F - 48.2 °F 59% 30.13 in 10.0 mi Calm Calm - N/A   Clear
1:50 AM 62.6 °F - 48.2 °F 59% 30.12 in 10.0 mi East 5.8 mph - N/A   Clear
2:10 AM 64.4 °F - 46.4 °F 52% 30.11 in 10.0 mi East 6.9 mph - N/A   Clear
2:30 AM 64.4 °F - 46.4 °F 52% 30.11 in 10.0 mi East 8.1 mph - N/A   Clear
2:50 AM 64.4 °F - 46.4 °F 52% 30.11 in 10.0 mi East 5.8 mph - N/A   Clear
3:10 AM 64.4 °F - 46.4 °F 52% 30.11 in 10.0 mi East 6.9 mph - N/A   Clear
3:30 AM 64.4 °F - 44.6 °F 49% 30.11 in 10.0 mi ESE 5.8 mph - N/A   Clear
3:50 AM 64.4 °F - 44.6 °F 49% 30.09 in 10.0 mi East 8.1 mph - N/A   Clear
4:10 AM 62.6 °F - 44.6 °F 52% 30.09 in 10.0 mi East 6.9 mph - N/A   Clear
4:30 AM 62.6 °F - 44.6 °F 52% 30.09 in 10.0 mi ESE 6.9 mph - N/A   Clear
4:50 AM 62.6 °F - 44.6 °F 52% 30.08 in 10.0 mi East 8.1 mph - N/A   Clear
5:10 AM 62.6 °F - 44.6 °F 52% 30.08 in 10.0 mi Calm Calm - N/A   Clear
5:30 AM 60.8 °F - 44.6 °F 55% 30.09 in 10.0 mi ESE 4.6 mph - N/A   Clear
5:50 AM 60.8 °F - 44.6 °F 55% 30.09 in 10.0 mi East 6.9 mph - N/A   Clear
6:10 AM 60.8 °F - 44.6 °F 55% 30.09 in 10.0 mi ESE 5.8 mph - N/A   Clear
6:30 AM 62.6 °F - 44.6 °F 52% 30.09 in 10.0 mi East 8.1 mph - N/A   Clear
6:50 AM 62.6 °F - 44.6 °F 52% 30.08 in 10.0 mi East 10.4 mph - N/A   Clear
7:10 AM 62.6 °F - 42.8 °F 48% 30.09 in 10.0 mi East 6.9 mph - N/A   Clear
7:30 AM 64.4 °F - 44.6 °F 49% 30.09 in 10.0 mi ESE 6.9 mph - N/A   Clear
7:50 AM 64.4 °F - 44.6 °F 49% 30.09 in 10.0 mi East 8.1 mph - N/A   Clear
8:10 AM 64.4 °F - 44.6 °F 49% 30.10 in 10.0 mi East 8.1 mph - N/A   Clear
8:30 AM 64.4 °F - 44.6 °F 49% 30.10 in 10.0 mi East 8.1 mph - N/A   Clear
8:50 AM 64.4 °F - 44.6 °F 49% 30.10 in 10.0 mi East 9.2 mph - N/A   Clear
9:10 AM 64.4 °F - 44.6 °F 49% 30.11 in 10.0 mi East 6.9 mph - N/A   Clear
9:30 AM 66.2 °F - 44.6 °F 46% 30.11 in 10.0 mi East 5.8 mph - N/A   Clear
9:50 AM 66.2 °F - 44.6 °F 46% 30.11 in 10.0 mi East 5.8 mph - N/A   Clear
10:10 AM 68.0 °F - 46.4 °F 46% 30.10 in 10.0 mi East 9.2 mph - N/A   Clear
10:30 AM 71.6 °F - 46.4 °F 41% 30.10 in 10.0 mi East 9.2 mph - N/A   Clear
10:50 AM 73.4 °F - 46.4 °F 38% 30.10 in 10.0 mi East 9.2 mph - N/A   Partly Cloudy
11:10 AM 75.2 °F - 48.2 °F 38% 30.09 in 10.0 mi ESE 8.1 mph - N/A   Partly Cloudy
11:30 AM 75.2 °F - 48.2 °F 38% 30.10 in 10.0 mi ESE 5.8 mph - N/A   Clear
11:50 AM 77.0 °F - 48.2 °F 36% 30.09 in 10.0 mi ESE 5.8 mph - N/A   Clear
12:10 PM 78.8 °F - 48.2 °F 34% 30.08 in 10.0 mi East 3.5 mph - N/A   Clear
12:30 PM 80.6 °F - 46.4 °F 30% 30.06 in 10.0 mi Calm Calm - N/A   Clear
12:50 PM 80.6 °F - 46.4 °F 30% 30.06 in 10.0 mi Calm Calm - N/A   Clear
1:10 PM 80.6 °F - 46.4 °F 30% 30.05 in 10.0 mi West 6.9 mph - N/A   Clear
1:30 PM 78.8 °F - 53.6 °F 42% 30.04 in 10.0 mi West 4.6 mph - N/A   Clear
1:50 PM 78.8 °F - 53.6 °F 42% 30.04 in 10.0 mi Calm Calm - N/A   Clear
2:10 PM 78.8 °F - 53.6 °F 42% 30.02 in 10.0 mi Calm Calm - N/A   Clear
2:30 PM 80.6 °F 80.3 °F 53.6 °F 39% 30.01 in 10.0 mi NW 3.5 mph - N/A   Clear
2:50 PM 80.6 °F - 51.8 °F 37% 30.01 in 10.0 mi Calm Calm - N/A   Clear
3:10 PM 80.6 °F - 51.8 °F 37% 30.00 in 10.0 mi Calm Calm - N/A   Clear
3:30 PM 80.6 °F 80.5 °F 55.4 °F 42% 30.00 in 10.0 mi West 4.6 mph - N/A   Clear
3:50 PM 80.6 °F 80.5 °F 55.4 °F 42% 30.00 in 10.0 mi Calm Calm - N/A   Clear
4:10 PM 78.8 °F - 55.4 °F 44% 29.99 in 10.0 mi Calm Calm - N/A   Clear
4:30 PM 77.0 °F - 55.4 °F 47% 29.99 in 10.0 mi Calm Calm - N/A   Clear
4:50 PM 75.2 °F - 57.2 °F 53% 29.99 in 10.0 mi Calm Calm - N/A   Clear
5:10 PM 73.4 °F - 57.2 °F 57% 29.99 in 10.0 mi Calm Calm - N/A   Clear
5:30 PM 71.6 °F - 55.4 °F 57% 29.99 in 10.0 mi Calm Calm - N/A   Clear
5:50 PM 69.8 °F - 55.4 °F 60% 29.99 in 10.0 mi Calm Calm - N/A   Clear
6:10 PM 66.2 °F - 55.4 °F 68% 29.98 in 10.0 mi Calm Calm - N/A   Clear
6:30 PM 62.6 °F - 55.4 °F 77% 29.98 in 10.0 mi Calm Calm - N/A   Clear
6:50 PM 64.4 °F - 55.4 °F 73% 29.98 in 10.0 mi East 5.8 mph - N/A   Clear
7:10 PM 68.0 °F - 57.2 °F 68% 29.98 in 10.0 mi Calm Calm - N/A   Clear
7:30 PM 66.2 °F - 57.2 °F 73% 29.98 in 10.0 mi East 4.6 mph - N/A   Clear
7:50 PM 68.0 °F - 57.2 °F 68% 29.98 in 10.0 mi Calm Calm - N/A   Clear
8:10 PM 69.8 °F - 55.4 °F 60% 29.98 in 10.0 mi Calm Calm - N/A   Clear
8:30 PM 64.4 °F - 55.4 °F 73% 29.98 in 10.0 mi Calm Calm - N/A   Clear
8:50 PM 60.8 °F - 55.4 °F 82% 29.98 in 10.0 mi Calm Calm - N/A   Clear
9:10 PM 60.8 °F - 55.4 °F 82% 29.98 in 10.0 mi Calm Calm - N/A   Clear
9:30 PM 62.6 °F - 55.4 °F 77% 29.98 in 10.0 mi Calm Calm - N/A   Clear
9:50 PM 62.6 °F - 53.6 °F 72% 29.99 in 10.0 mi Calm Calm - N/A   Clear
10:10 PM 64.4 °F - 53.6 °F 68% 29.99 in 10.0 mi Calm Calm - N/A   Clear
10:30 PM 62.6 °F - 53.6 °F 72% 30.00 in 10.0 mi Calm Calm - N/A   Clear
10:50 PM 64.4 °F - 53.6 °F 68% 29.99 in 10.0 mi East 6.9 mph - N/A   Clear
11:10 PM 66.2 °F - 51.8 °F 60% 29.99 in 10.0 mi East 9.2 mph - N/A   Clear
11:30 PM 64.4 °F - 51.8 °F 64% 29.99 in 10.0 mi East 6.9 mph - N/A   Clear
11:50 PM 64.4 °F - 50.0 °F 59% 29.98 in 10.0 mi East 9.2 mph - N/A   Clear